Time,TemperatureF,DewpointF,PressureIn,WindDirection,WindDirectionDegrees,WindSpeedMPH,WindSpeedGustMPH,Humidity,HourlyPrecipIn,Conditions,Clouds,dailyrainin,SoftwareType,DateUTC
2013-03-28 00:00:00,40.1,19.4,30.21,North,0,0.0,0.0,43,0.00,CLR,FEW,0.00,WeatherDisplay:10.37,2013-03-28 04:00:00,
2013-03-28 00:01:00,40.1,19.4,30.21,North,0,0.0,0.0,43,0.00,CLR,FEW,0.00,WeatherDisplay:10.37,2013-03-28 04:01:00,
2013-03-28 00:03:00,39.9,19.2,30.21,North,0,0.0,0.0,43,0.00,CLR,FEW,0.00,WeatherDisplay:10.37,2013-03-28 04:03:00,
2013-03-28 00:08:00,39.9,19.2,30.21,North,0,0.0,0.0,43,0.00,CLR,FEW,0.00,WeatherDisplay:10.37,2013-03-28 04:08:00,
2013-03-28 00:12:00,39.9,18.7,30.21,North,0,0.0,0.0,42,0.00,CLR,FEW,0.00,WeatherDisplay:10.37,2013-03-28 04:12:00,
2013-03-28 00:17:00,39.7,18.5,30.21,North,0,0.0,0.0,42,0.00,CLR,FEW,0.00,WeatherDisplay:10.37,2013-03-28 04:17:00,
2013-03-28 00:22:00,39.7,19.0,30.21,North,0,0.0,0.0,43,0.00,CLR,FEW,0.00,WeatherDisplay:10.37,2013-03-28 04:22:00,
2013-03-28 00:27:00,39.6,18.9,30.21,North,0,0.0,0.0,43,0.00,CLR,FEW,0.00,WeatherDisplay:10.37,2013-03-28 04:27:00,
2013-03-28 00:32:00,39.4,18.7,30.21,North,0,0.0,0.0,43,0.00,CLR,FEW,0.00,WeatherDisplay:10.37,2013-03-28 04:32:00,
2013-03-28 00:37:00,39.4,18.2,30.21,North,0,0.0,0.0,42,0.00,CLR,FEW,0.00,WeatherDisplay:10.37,2013-03-28 04:37:00,
2013-03-28 00:42:00,39.2,18.0,30.21,North,0,0.0,0.0,42,0.00,CLR,FEW,0.00,WeatherDisplay:10.37,2013-03-28 04:42:00,
2013-03-28 00:47:00,39.0,18.4,30.21,North,0,0.0,0.0,43,0.00,CLR,FEW,0.00,WeatherDisplay:10.37,2013-03-28 04:47:00,
2013-03-28 00:52:00,39.0,18.4,30.21,North,0,0.0,0.0,43,0.00,CLR,FEW,0.00,WeatherDisplay:10.37,2013-03-28 04:52:00,
2013-03-28 00:57:00,39.0,18.4,30.21,North,0,0.0,0.0,43,0.00,CLR,FEW,0.00,WeatherDisplay:10.37,2013-03-28 04:57:00,
2013-03-28 01:02:00,39.0,18.4,30.21,North,0,0.0,0.0,43,0.00,CLR,FEW,0.00,WeatherDisplay:10.37,2013-03-28 05:02:00,
2013-03-28 01:07:00,39.2,18.0,30.21,North,0,0.0,0.0,42,0.00,CLR,FEW,0.00,WeatherDisplay:10.37,2013-03-28 05:07:00,
2013-03-28 01:12:00,39.2,18.0,30.21,North,0,0.0,0.0,42,0.00,CLR,FEW,0.00,WeatherDisplay:10.37,2013-03-28 05:12:00,
2013-03-28 01:17:00,39.4,18.2,30.21,North,0,0.0,0.0,42,0.00,CLR,FEW,0.00,WeatherDisplay:10.37,2013-03-28 05:17:00,
2013-03-28 01:22:00,39.4,17.6,30.21,North,0,0.0,0.0,41,0.00,CLR,FEW,0.00,WeatherDisplay:10.37,2013-03-28 05:22:00,
2013-03-28 01:27:00,39.4,17.6,30.21,North,0,0.0,0.0,41,0.00,CLR,FEW,0.00,WeatherDisplay:10.37,2013-03-28 05:27:00,
2013-03-28 01:32:00,39.4,18.2,30.21,North,0,0.0,0.0,42,0.00,CLR,FEW,0.00,WeatherDisplay:10.37,2013-03-28 05:32:00,
2013-03-28 01:37:00,39.4,17.6,30.21,North,0,0.0,0.0,41,0.00,CLR,FEW,0.00,WeatherDisplay:10.37,2013-03-28 05:37:00,
2013-03-28 01:42:00,39.6,17.8,30.21,North,0,0.0,0.0,41,0.00,CLR,FEW,0.00,WeatherDisplay:10.37,2013-03-28 05:42:00,
2013-03-28 01:47:00,39.7,17.4,30.21,North,0,0.0,0.0,40,0.00,CLR,FEW,0.00,WeatherDisplay:10.37,2013-03-28 05:47:00,
2013-03-28 01:52:00,39.7,17.4,30.21,North,0,0.0,0.0,40,0.00,CLR,FEW,0.00,WeatherDisplay:10.37,2013-03-28 05:52:00,
2013-03-28 01:57:00,39.7,16.8,30.21,North,0,0.0,0.0,39,0.00,CLR,FEW,0.00,WeatherDisplay:10.37,2013-03-28 05:57:00,
2013-03-28 02:02:00,39.7,16.8,30.21,North,0,0.0,0.0,39,0.00,CLR,FEW,0.00,WeatherDisplay:10.37,2013-03-28 06:02:00,
2013-03-28 02:07:00,39.7,16.8,30.21,North,0,0.0,0.0,39,0.00,CLR,FEW,0.00,WeatherDisplay:10.37,2013-03-28 06:07:00,
2013-03-28 02:12:00,39.7,16.8,30.21,North,0,0.0,0.0,39,0.00,CLR,FEW,0.00,WeatherDisplay:10.37,2013-03-28 06:12:00,
2013-03-28 02:17:00,39.6,16.6,30.21,North,0,0.0,0.0,39,0.00,CLR,FEW,0.00,WeatherDisplay:10.37,2013-03-28 06:17:00,
2013-03-28 02:23:00,39.4,16.4,30.21,North,0,0.0,0.0,39,0.00,CLR,FEW,0.00,WeatherDisplay:10.37,2013-03-28 06:23:00,
2013-03-28 02:28:00,39.4,16.4,30.21,North,0,0.0,0.0,39,0.00,CLR,FEW,0.00,WeatherDisplay:10.37,2013-03-28 06:28:00,
2013-03-28 02:33:00,39.2,16.3,30.21,North,0,0.0,0.0,39,0.00,CLR,FEW,0.00,WeatherDisplay:10.37,2013-03-28 06:33:00,
2013-03-28 02:38:00,39.0,16.7,30.21,North,0,0.0,0.0,40,0.00,CLR,FEW,0.00,WeatherDisplay:10.37,2013-03-28 06:38:00,
2013-03-28 02:43:00,38.7,16.4,30.21,North,0,0.0,0.0,40,0.00,CLR,FEW,0.00,WeatherDisplay:10.37,2013-03-28 06:43:00,
2013-03-28 02:48:00,38.5,16.2,30.21,North,0,0.0,0.0,40,0.00,CLR,FEW,0.00,WeatherDisplay:10.37,2013-03-28 06:48:00,
2013-03-28 02:53:00,38.5,16.2,30.21,North,0,0.0,0.0,40,0.00,CLR,FEW,0.00,WeatherDisplay:10.37,2013-03-28 06:53:00,
2013-03-28 02:58:00,38.5,16.8,30.21,North,0,0.0,0.0,41,0.00,CLR,FEW,0.00,WeatherDisplay:10.37,2013-03-28 06:58:00,
2013-03-28 03:03:00,38.3,16.6,30.21,North,0,0.0,0.0,41,0.00,CLR,FEW,0.00,WeatherDisplay:10.37,2013-03-28 07:03:00,
2013-03-28 03:08:00,38.1,16.5,30.21,North,0,0.0,0.0,41,0.00,CLR,FEW,0.00,WeatherDisplay:10.37,2013-03-28 07:08:00,
2013-03-28 03:13:00,37.9,16.3,30.21,North,0,0.0,0.0,41,0.00,CLR,FEW,0.00,WeatherDisplay:10.37,2013-03-28 07:13:00,
2013-03-28 03:18:00,37.9,16.9,30.21,North,0,0.0,0.0,42,0.00,CLR,FEW,0.00,WeatherDisplay:10.37,2013-03-28 07:18:00,
2013-03-28 03:23:00,37.9,16.9,30.21,North,0,0.0,0.0,42,0.00,CLR,FEW,0.00,WeatherDisplay:10.37,2013-03-28 07:23:00,
2013-03-28 03:28:00,37.9,16.9,30.21,North,0,0.0,0.0,42,0.00,CLR,FEW,0.00,WeatherDisplay:10.37,2013-03-28 07:28:00,
2013-03-28 03:33:00,37.9,16.3,30.21,North,0,0.0,0.0,41,0.00,CLR,FEW,0.00,WeatherDisplay:10.37,2013-03-28 07:33:00,
2013-03-28 03:38:00,37.9,16.3,30.21,North,0,0.0,0.0,41,0.00,CLR,FEW,0.00,WeatherDisplay:10.37,2013-03-28 07:38:00,
2013-03-28 03:43:00,37.6,16.0,30.21,North,0,0.0,0.0,41,0.00,CLR,FEW,0.00,WeatherDisplay:10.37,2013-03-28 07:43:00,
2013-03-28 03:48:00,37.6,16.5,30.21,North,0,0.0,0.0,42,0.00,CLR,FEW,0.00,WeatherDisplay:10.37,2013-03-28 07:48:00,
2013-03-28 03:53:00,37.6,16.0,30.21,North,0,0.0,0.0,41,0.00,CLR,FEW,0.00,WeatherDisplay:10.37,2013-03-28 07:53:00,
2013-03-28 03:58:00,37.6,16.0,30.21,North,0,0.0,0.0,41,0.00,CLR,FEW,0.00,WeatherDisplay:10.37,2013-03-28 07:58:00,
2013-03-28 04:03:00,37.6,16.0,30.21,North,0,0.0,0.0,41,0.00,CLR,FEW,0.00,WeatherDisplay:10.37,2013-03-28 08:03:00,
2013-03-28 04:08:00,37.6,16.0,30.21,North,0,0.0,0.0,41,0.00,CLR,FEW,0.00,WeatherDisplay:10.37,2013-03-28 08:08:00,
2013-03-28 04:13:00,37.4,15.8,30.21,North,0,0.0,0.0,41,0.00,CLR,FEW,0.00,WeatherDisplay:10.37,2013-03-28 08:13:00,
2013-03-28 04:18:00,37.2,16.2,30.21,North,0,0.0,0.0,42,0.00,CLR,FEW,0.00,WeatherDisplay:10.37,2013-03-28 08:18:00,
2013-03-28 04:23:00,37.0,16.0,30.21,North,0,0.0,0.0,42,0.00,CLR,FEW,0.00,WeatherDisplay:10.37,2013-03-28 08:23:00,
2013-03-28 04:28:00,36.9,15.9,30.21,North,0,0.0,0.0,42,0.00,CLR,FEW,0.00,WeatherDisplay:10.37,2013-03-28 08:28:00,
2013-03-28 04:33:00,36.7,15.7,30.21,North,0,0.0,0.0,42,0.00,CLR,FEW,0.00,WeatherDisplay:10.37,2013-03-28 08:33:00,
2013-03-28 04:38:00,36.7,15.7,30.21,North,0,0.0,0.0,42,0.00,CLR,FEW,0.00,WeatherDisplay:10.37,2013-03-28 08:38:00,
2013-03-28 04:43:00,36.5,16.1,30.21,North,0,0.0,0.0,43,0.00,CLR,FEW,0.00,WeatherDisplay:10.37,2013-03-28 08:43:00,
2013-03-28 04:48:00,36.3,15.9,30.21,North,0,0.0,0.0,43,0.00,CLR,FEW,0.00,WeatherDisplay:10.37,2013-03-28 08:48:00,
2013-03-28 04:53:00,36.3,15.9,30.21,North,0,0.0,0.0,43,0.00,CLR,FEW,0.00,WeatherDisplay:10.37,2013-03-28 08:53:00,
2013-03-28 04:58:00,36.3,16.5,30.21,North,0,0.0,0.0,44,0.00,CLR,FEW,0.00,WeatherDisplay:10.37,2013-03-28 08:58:00,
2013-03-28 05:03:00,36.3,16.5,30.21,North,0,0.0,0.0,44,0.00,CLR,FEW,0.00,WeatherDisplay:10.37,2013-03-28 09:03:00,
2013-03-28 05:08:00,36.3,16.5,30.21,North,0,0.0,0.0,44,0.00,CLR,FEW,0.00,WeatherDisplay:10.37,2013-03-28 09:08:00,
2013-03-28 05:13:00,36.3,15.9,30.21,North,0,0.0,0.0,43,0.00,CLR,FEW,0.00,WeatherDisplay:10.37,2013-03-28 09:13:00,
2013-03-28 05:18:00,36.3,15.9,30.21,North,0,0.0,0.0,43,0.00,CLR,FEW,0.00,WeatherDisplay:10.37,2013-03-28 09:18:00,
2013-03-28 05:23:00,36.3,15.9,30.21,North,0,0.0,0.0,43,0.00,CLR,FEW,0.00,WeatherDisplay:10.37,2013-03-28 09:23:00,
2013-03-28 05:28:00,36.3,15.4,30.21,North,0,0.0,0.0,42,0.00,CLR,FEW,0.00,WeatherDisplay:10.37,2013-03-28 09:28:00,
2013-03-28 05:33:00,36.3,15.4,30.21,North,0,0.0,0.0,42,0.00,CLR,FEW,0.00,WeatherDisplay:10.37,2013-03-28 09:33:00,
2013-03-28 05:38:00,36.3,15.4,30.21,North,0,0.0,0.0,42,0.00,CLR,FEW,0.00,WeatherDisplay:10.37,2013-03-28 09:38:00,
2013-03-28 05:43:00,36.3,15.4,30.21,North,0,0.0,0.0,42,0.00,CLR,FEW,0.00,WeatherDisplay:10.37,2013-03-28 09:43:00,
2013-03-28 05:48:00,36.3,15.4,30.21,North,0,0.0,0.0,42,0.00,CLR,FEW,0.00,WeatherDisplay:10.37,2013-03-28 09:48:00,
2013-03-28 05:53:00,36.1,15.2,30.21,North,0,0.0,0.0,42,0.00,CLR,FEW,0.00,WeatherDisplay:10.37,2013-03-28 09:53:00,
2013-03-28 05:58:00,36.0,15.1,30.21,North,0,0.0,0.0,42,0.00,CLR,FEW,0.00,WeatherDisplay:10.37,2013-03-28 09:58:00,
2013-03-28 06:03:00,35.8,14.9,30.21,North,0,0.0,0.0,42,0.00,CLR,FEW,0.00,WeatherDisplay:10.37,2013-03-28 10:03:00,
2013-03-28 06:08:00,35.6,15.3,30.21,North,0,0.0,0.0,43,0.00,CLR,FEW,0.00,WeatherDisplay:10.37,2013-03-28 10:08:00,
2013-03-28 06:13:00,35.4,15.6,30.21,North,0,0.0,0.0,44,0.00,CLR,FEW,0.00,WeatherDisplay:10.37,2013-03-28 10:13:00,
2013-03-28 06:18:00,35.2,15.5,30.21,North,0,0.0,0.0,44,0.00,CLR,FEW,0.00,WeatherDisplay:10.37,2013-03-28 10:18:00,
2013-03-28 06:23:00,35.1,15.3,30.21,North,0,0.0,0.0,44,0.00,CLR,FEW,0.00,WeatherDisplay:10.37,2013-03-28 10:23:00,
2013-03-28 06:28:00,35.1,15.8,30.24,North,0,0.0,0.0,45,0.00,CLR,FEW,0.00,WeatherDisplay:10.37,2013-03-28 10:28:00,
2013-03-28 06:33:00,35.1,15.8,30.24,North,0,0.0,0.0,45,0.00,CLR,FEW,0.00,WeatherDisplay:10.37,2013-03-28 10:33:00,
2013-03-28 06:38:00,35.1,15.3,30.24,North,0,0.0,0.0,44,0.00,CLR,FEW,0.00,WeatherDisplay:10.37,2013-03-28 10:38:00,
2013-03-28 06:43:00,35.1,15.3,30.24,North,0,0.0,0.0,44,0.00,CLR,FEW,0.00,WeatherDisplay:10.37,2013-03-28 10:43:00,
2013-03-28 06:48:00,35.1,15.3,30.24,North,0,0.0,0.0,44,0.00,CLR,FEW,0.00,WeatherDisplay:10.37,2013-03-28 10:48:00,
2013-03-28 06:53:00,34.9,15.1,30.24,North,0,0.0,0.0,44,0.00,CLR,FEW,0.00,WeatherDisplay:10.37,2013-03-28 10:53:00,
2013-03-28 06:58:00,34.7,15.0,30.24,North,0,0.0,0.0,44,0.00,CLR,FEW,0.00,WeatherDisplay:10.37,2013-03-28 10:58:00,
2013-03-28 07:03:00,34.5,14.8,30.24,North,0,0.0,0.0,44,0.00,CLR,FEW,0.00,WeatherDisplay:10.37,2013-03-28 11:03:00,
2013-03-28 07:08:00,34.5,14.8,30.24,North,0,0.0,0.0,44,0.00,CLR,FEW,0.00,WeatherDisplay:10.37,2013-03-28 11:08:00,
2013-03-28 07:13:00,34.5,14.8,30.24,North,0,0.0,0.0,44,0.00,CLR,FEW,0.00,WeatherDisplay:10.37,2013-03-28 11:13:00,
2013-03-28 07:18:00,34.5,14.8,30.24,North,0,0.0,0.0,44,0.00,CLR,FEW,0.00,WeatherDisplay:10.37,2013-03-28 11:18:00,
2013-03-28 07:23:00,34.5,14.8,30.24,North,0,0.0,0.0,44,0.00,CLR,FEW,0.00,WeatherDisplay:10.37,2013-03-28 11:23:00,
2013-03-28 07:28:00,34.5,14.8,30.24,North,0,0.0,0.0,44,0.00,CLR,FEW,0.00,WeatherDisplay:10.37,2013-03-28 11:28:00,
2013-03-28 07:33:00,34.7,15.0,30.24,North,0,0.0,0.0,44,0.00,CLR,FEW,0.00,WeatherDisplay:10.37,2013-03-28 11:33:00,
2013-03-28 07:38:00,34.9,15.1,30.24,North,0,0.0,0.0,44,0.00,CLR,FEW,0.00,WeatherDisplay:10.37,2013-03-28 11:38:00,
2013-03-28 07:43:00,35.1,15.3,30.24,North,0,0.0,0.0,44,0.00,CLR,FEW,0.00,WeatherDisplay:10.37,2013-03-28 11:43:00,
2013-03-28 07:48:00,35.2,15.5,30.24,North,0,0.0,0.0,44,0.00,CLR,FEW,0.00,WeatherDisplay:10.37,2013-03-28 11:48:00,
2013-03-28 07:53:00,35.6,15.3,30.24,North,0,0.0,0.0,43,0.00,CLR,FEW,0.00,WeatherDisplay:10.37,2013-03-28 11:53:00,
2013-03-28 07:58:00,35.8,15.4,30.24,North,0,0.0,0.0,43,0.00,CLR,FEW,0.00,WeatherDisplay:10.37,2013-03-28 11:58:00,
2013-03-28 08:03:00,36.1,15.8,30.24,North,0,0.0,0.0,43,0.00,CLR,FEW,0.00,WeatherDisplay:10.37,2013-03-28 12:03:00,
2013-03-28 08:08:00,36.7,15.7,30.24,North,0,0.0,0.0,42,0.00,CLR,FEW,0.00,WeatherDisplay:10.37,2013-03-28 12:08:00,
2013-03-28 08:13:00,37.4,15.8,30.24,North,0,0.0,0.0,41,0.00,CLR,FEW,0.00,WeatherDisplay:10.37,2013-03-28 12:13:00,
2013-03-28 08:18:00,37.9,16.3,30.24,North,0,0.0,0.0,41,0.00,CLR,FEW,0.00,WeatherDisplay:10.37,2013-03-28 12:18:00,
2013-03-28 08:23:00,38.8,16.5,30.24,North,0,0.0,0.0,40,0.00,CLR,FEW,0.00,WeatherDisplay:10.37,2013-03-28 12:23:00,
2013-03-28 08:28:00,39.7,16.2,30.27,North,0,0.0,0.0,38,0.00,CLR,FEW,0.00,WeatherDisplay:10.37,2013-03-28 12:28:00,
2013-03-28 08:33:00,40.3,16.0,30.27,North,0,0.0,0.0,37,0.00,CLR,FEW,0.00,WeatherDisplay:10.37,2013-03-28 12:33:00,
2013-03-28 08:38:00,40.6,15.1,30.27,North,0,0.0,0.0,35,0.00,CLR,FEW,0.00,WeatherDisplay:10.37,2013-03-28 12:38:00,
2013-03-28 08:43:00,41.0,14.7,30.27,North,0,0.0,0.0,34,0.00,CLR,FEW,0.00,WeatherDisplay:10.37,2013-03-28 12:43:00,
2013-03-28 08:48:00,41.2,14.9,30.27,North,0,0.0,0.0,34,0.00,CLR,FEW,0.00,WeatherDisplay:10.37,2013-03-28 12:48:00,
2013-03-28 08:53:00,41.7,14.7,30.27,North,0,0.0,0.0,33,0.00,CLR,FEW,0.00,WeatherDisplay:10.37,2013-03-28 12:53:00,
2013-03-28 08:58:00,42.4,15.3,30.27,North,0,0.0,0.0,33,0.00,CLR,FEW,0.00,WeatherDisplay:10.37,2013-03-28 12:58:00,
2013-03-28 09:03:00,43.3,15.4,30.27,North,0,0.0,0.0,32,0.00,CLR,FEW,0.00,WeatherDisplay:10.37,2013-03-28 13:03:00,
2013-03-28 09:08:00,43.7,15.0,30.27,North,0,0.0,0.0,31,0.00,CLR,FEW,0.00,WeatherDisplay:10.37,2013-03-28 13:08:00,
2013-03-28 09:13:00,44.2,15.5,30.27,North,0,0.0,0.0,31,0.00,CLR,FEW,0.00,WeatherDisplay:10.37,2013-03-28 13:13:00,
2013-03-28 09:18:00,44.8,14.4,30.27,North,0,0.0,0.0,29,0.00,CLR,FEW,0.00,WeatherDisplay:10.37,2013-03-28 13:18:00,
2013-03-28 09:23:00,45.3,14.9,30.27,North,0,0.0,0.0,29,0.00,CLR,FEW,0.00,WeatherDisplay:10.37,2013-03-28 13:23:00,
2013-03-28 09:28:00,45.9,15.3,30.27,North,0,0.0,0.0,29,0.00,CLR,FEW,0.00,WeatherDisplay:10.37,2013-03-28 13:28:00,
2013-03-28 09:33:00,46.2,15.7,30.27,North,0,0.0,0.0,29,0.00,CLR,FEW,0.00,WeatherDisplay:10.37,2013-03-28 13:33:00,
2013-03-28 09:38:00,46.8,15.3,30.27,North,0,0.0,0.0,28,0.00,CLR,FEW,0.00,WeatherDisplay:10.37,2013-03-28 13:38:00,
2013-03-28 09:43:00,47.3,15.8,30.27,North,0,0.0,0.0,28,0.00,CLR,FEW,0.00,WeatherDisplay:10.37,2013-03-28 13:43:00,
2013-03-28 09:48:00,47.3,15.8,30.27,North,0,0.0,0.0,28,0.00,CLR,FEW,0.00,WeatherDisplay:10.37,2013-03-28 13:48:00,
2013-03-28 09:53:00,47.8,15.4,30.27,North,0,0.0,0.0,27,0.00,CLR,FEW,0.00,WeatherDisplay:10.37,2013-03-28 13:53:00,
2013-03-28 09:58:00,48.7,16.2,30.27,North,0,0.0,0.0,27,0.00,CLR,FEW,0.00,WeatherDisplay:10.37,2013-03-28 13:58:00,
2013-03-28 10:03:00,49.1,16.5,30.27,North,0,0.0,0.0,27,0.00,CLR,FEW,0.00,WeatherDisplay:10.37,2013-03-28 14:03:00,
2013-03-28 10:08:00,49.5,16.8,30.27,North,0,0.0,0.0,27,0.00,CLR,FEW,0.00,WeatherDisplay:10.37,2013-03-28 14:08:00,
2013-03-28 10:13:00,49.8,17.1,30.27,North,0,0.0,0.0,27,0.00,CLR,FEW,0.00,WeatherDisplay:10.37,2013-03-28 14:13:00,
2013-03-28 10:18:00,50.4,16.7,30.27,North,0,0.0,0.0,26,0.00,CLR,FEW,0.00,WeatherDisplay:10.37,2013-03-28 14:18:00,
2013-03-28 10:23:00,50.4,16.7,30.27,North,0,0.0,0.0,26,0.00,CLR,FEW,0.00,WeatherDisplay:10.37,2013-03-28 14:23:00,
2013-03-28 10:28:00,50.5,16.9,30.27,North,0,0.0,0.0,26,0.00,CLR,FEW,0.00,WeatherDisplay:10.37,2013-03-28 14:28:00,
2013-03-28 10:33:00,50.9,17.2,30.27,North,0,0.0,0.0,26,0.00,CLR,FEW,0.00,WeatherDisplay:10.37,2013-03-28 14:33:00,
2013-03-28 10:38:00,51.3,15.6,30.27,North,0,0.0,0.0,24,0.00,CLR,FEW,0.00,WeatherDisplay:10.37,2013-03-28 14:38:00,
2013-03-28 10:43:00,51.1,15.5,30.27,North,0,0.0,0.0,24,0.00,CLR,FEW,0.00,WeatherDisplay:10.37,2013-03-28 14:43:00,
2013-03-28 10:48:00,51.6,15.9,30.27,North,0,0.0,0.0,24,0.00,CLR,FEW,0.00,WeatherDisplay:10.37,2013-03-28 14:48:00,
2013-03-28 10:53:00,51.6,15.9,30.27,North,0,0.0,0.0,24,0.00,CLR,FEW,0.00,WeatherDisplay:10.37,2013-03-28 14:53:00,
2013-03-28 10:58:00,52.0,15.3,30.27,North,0,0.0,0.0,23,0.00,CLR,FEW,0.00,WeatherDisplay:10.37,2013-03-28 14:58:00,
2013-03-28 11:03:00,52.3,13.5,30.27,North,0,0.0,0.0,21,0.00,CLR,FEW,0.00,WeatherDisplay:10.37,2013-03-28 15:03:00,
2013-03-28 11:08:00,52.5,15.7,30.27,North,0,0.0,0.0,23,0.00,CLR,FEW,0.00,WeatherDisplay:10.37,2013-03-28 15:08:00,
2013-03-28 11:13:00,52.2,13.3,30.27,North,0,0.0,0.0,21,0.00,CLR,FEW,0.00,WeatherDisplay:10.37,2013-03-28 15:13:00,
2013-03-28 11:18:00,52.0,13.2,30.27,North,0,0.0,0.0,21,0.00,CLR,FEW,0.00,WeatherDisplay:10.37,2013-03-28 15:18:00,
2013-03-28 11:23:00,52.5,13.6,30.27,North,0,0.0,0.0,21,0.00,CLR,FEW,0.00,WeatherDisplay:10.37,2013-03-28 15:23:00,
2013-03-28 11:28:00,53.1,14.1,30.27,North,0,0.0,0.0,21,0.00,CLR,FEW,0.00,WeatherDisplay:10.37,2013-03-28 15:28:00,
2013-03-28 11:33:00,53.1,14.1,30.27,North,0,0.0,0.0,21,0.00,CLR,FEW,0.00,WeatherDisplay:10.37,2013-03-28 15:33:00,
2013-03-28 11:38:00,53.4,14.4,30.27,North,0,0.0,0.0,21,0.00,CLR,FEW,0.00,WeatherDisplay:10.37,2013-03-28 15:38:00,
2013-03-28 11:43:00,53.6,13.4,30.24,North,0,0.0,0.0,20,0.00,CLR,FEW,0.00,WeatherDisplay:10.37,2013-03-28 15:43:00,
2013-03-28 11:48:00,54.1,13.9,30.24,North,0,0.0,0.0,20,0.00,CLR,FEW,0.00,WeatherDisplay:10.37,2013-03-28 15:48:00,
2013-03-28 11:53:00,54.0,13.7,30.24,North,0,0.0,0.0,20,0.00,CLR,FEW,0.00,WeatherDisplay:10.37,2013-03-28 15:53:00,
2013-03-28 11:58:00,54.0,13.7,30.24,North,0,0.0,0.0,20,0.00,CLR,FEW,0.00,WeatherDisplay:10.37,2013-03-28 15:58:00,
2013-03-28 12:03:00,54.0,13.7,30.24,North,0,0.0,0.0,20,0.00,CLR,FEW,0.00,WeatherDisplay:10.37,2013-03-28 16:03:00,
2013-03-28 12:08:00,54.0,13.7,30.24,North,0,0.0,0.0,20,0.00,CLR,FEW,0.00,WeatherDisplay:10.37,2013-03-28 16:08:00,
2013-03-28 12:13:00,54.0,13.7,30.24,North,0,0.0,0.0,20,0.00,CLR,FEW,0.00,WeatherDisplay:10.37,2013-03-28 16:13:00,
2013-03-28 12:18:00,54.3,14.0,30.24,North,0,0.0,0.0,20,0.00,CLR,FEW,0.00,WeatherDisplay:10.37,2013-03-28 16:18:00,
2013-03-28 12:23:00,55.0,14.6,30.24,North,0,0.0,0.0,20,0.00,CLR,FEW,0.00,WeatherDisplay:10.37,2013-03-28 16:23:00,
2013-03-28 12:28:00,55.6,15.1,30.24,North,0,0.0,0.0,20,0.00,CLR,FEW,0.00,WeatherDisplay:10.37,2013-03-28 16:28:00,
2013-03-28 12:33:00,55.8,15.2,30.24,North,0,0.0,0.0,20,0.00,CLR,FEW,0.00,WeatherDisplay:10.37,2013-03-28 16:33:00,
2013-03-28 12:38:00,55.9,15.4,30.24,North,0,0.0,0.0,20,0.00,CLR,FEW,0.00,WeatherDisplay:10.37,2013-03-28 16:38:00,
2013-03-28 12:43:00,56.3,12.0,30.24,North,0,0.0,0.0,17,0.00,CLR,FEW,0.00,WeatherDisplay:10.37,2013-03-28 16:43:00,
2013-03-28 12:48:00,56.5,12.1,30.24,North,0,0.0,0.0,17,0.00,CLR,FEW,0.00,WeatherDisplay:10.37,2013-03-28 16:48:00,
2013-03-28 12:53:00,56.7,12.3,30.24,North,0,0.0,0.0,17,0.00,CLR,FEW,0.00,WeatherDisplay:10.37,2013-03-28 16:53:00,
2013-03-28 12:58:00,56.3,15.7,30.24,North,0,0.0,0.0,20,0.00,CLR,FEW,0.00,WeatherDisplay:10.37,2013-03-28 16:58:00,
2013-03-28 13:03:00,56.7,12.3,30.24,North,0,0.0,0.0,17,0.00,CLR,FEW,0.00,WeatherDisplay:10.37,2013-03-28 17:03:00,
2013-03-28 13:08:00,57.2,12.7,30.24,North,0,0.0,0.0,17,0.00,CLR,FEW,0.00,WeatherDisplay:10.37,2013-03-28 17:08:00,
2013-03-28 13:13:00,57.0,12.6,30.21,North,0,0.0,0.0,17,0.00,CLR,FEW,0.00,WeatherDisplay:10.37,2013-03-28 17:13:00,
2013-03-28 13:18:00,56.8,12.4,30.21,North,0,0.0,0.0,17,0.00,CLR,FEW,0.00,WeatherDisplay:10.37,2013-03-28 17:18:00,
2013-03-28 13:23:00,56.7,12.3,30.21,North,0,0.0,0.0,17,0.00,CLR,FEW,0.00,WeatherDisplay:10.37,2013-03-28 17:23:00,
2013-03-28 13:28:00,56.8,12.4,30.21,North,0,0.0,0.0,17,0.00,CLR,FEW,0.00,WeatherDisplay:10.37,2013-03-28 17:28:00,
2013-03-28 13:33:00,57.4,12.9,30.21,North,0,0.0,0.0,17,0.00,CLR,FEW,0.00,WeatherDisplay:10.37,2013-03-28 17:33:00,
2013-03-28 13:38:00,57.2,12.7,30.21,North,0,0.0,0.0,17,0.00,CLR,FEW,0.00,WeatherDisplay:10.37,2013-03-28 17:38:00,
2013-03-28 13:43:00,57.0,12.6,30.21,North,0,0.0,0.0,17,0.00,CLR,FEW,0.00,WeatherDisplay:10.37,2013-03-28 17:43:00,
2013-03-28 13:48:00,57.2,12.7,30.21,North,0,0.0,0.0,17,0.00,CLR,FEW,0.00,WeatherDisplay:10.37,2013-03-28 17:48:00,
2013-03-28 13:53:00,57.4,12.9,30.21,North,0,0.0,0.0,17,0.00,CLR,FEW,0.00,WeatherDisplay:10.37,2013-03-28 17:53:00,
2013-03-28 13:58:00,57.0,12.6,30.21,North,0,0.0,0.0,17,0.00,CLR,FEW,0.00,WeatherDisplay:10.37,2013-03-28 17:58:00,
2013-03-28 14:03:00,57.6,13.0,30.21,North,0,0.0,0.0,17,0.00,CLR,FEW,0.00,WeatherDisplay:10.37,2013-03-28 18:03:00,
2013-03-28 14:08:00,57.9,13.3,30.21,North,0,0.0,0.0,17,0.00,CLR,FEW,0.00,WeatherDisplay:10.37,2013-03-28 18:08:00,
2013-03-28 14:13:00,57.9,13.3,30.21,North,0,0.0,0.0,17,0.00,CLR,FEW,0.00,WeatherDisplay:10.37,2013-03-28 18:13:00,
2013-03-28 14:19:00,57.7,13.2,30.21,North,0,0.0,0.0,17,0.00,CLR,FEW,0.00,WeatherDisplay:10.37,2013-03-28 18:19:00,
2013-03-28 14:24:00,57.7,13.2,30.21,North,0,0.0,0.0,17,0.00,CLR,FEW,0.00,WeatherDisplay:10.37,2013-03-28 18:24:00,
2013-03-28 14:29:00,58.6,13.9,30.21,North,0,0.0,0.0,17,0.00,CLR,FEW,0.00,WeatherDisplay:10.37,2013-03-28 18:29:00,
2013-03-28 14:34:00,59.0,14.2,30.21,North,0,0.0,0.0,17,0.00,CLR,FEW,0.00,WeatherDisplay:10.37,2013-03-28 18:34:00,
2013-03-28 14:39:00,59.2,14.3,30.21,North,0,0.0,0.0,17,0.00,CLR,FEW,0.00,WeatherDisplay:10.37,2013-03-28 18:39:00,
2013-03-28 14:44:00,58.8,14.0,30.18,North,0,0.0,0.0,17,0.00,CLR,FEW,0.00,WeatherDisplay:10.37,2013-03-28 18:44:00,
2013-03-28 14:49:00,59.2,14.3,30.18,North,0,0.0,0.0,17,0.00,CLR,FEW,0.00,WeatherDisplay:10.37,2013-03-28 18:49:00,
2013-03-28 14:54:00,59.2,14.3,30.18,North,0,0.0,0.0,17,0.00,CLR,FEW,0.00,WeatherDisplay:10.37,2013-03-28 18:54:00,
2013-03-28 15:00:00,59.4,14.5,30.18,North,0,0.0,0.0,17,0.00,CLR,FEW,0.00,WeatherDisplay:10.37,2013-03-28 19:00:00,
2013-03-28 15:05:00,59.2,14.3,30.18,North,0,0.0,0.0,17,0.00,CLR,FEW,0.00,WeatherDisplay:10.37,2013-03-28 19:05:00,
2013-03-28 15:10:00,59.4,14.5,30.18,North,0,0.0,0.0,17,0.00,CLR,FEW,0.00,WeatherDisplay:10.37,2013-03-28 19:10:00,
2013-03-28 15:15:00,59.2,14.3,30.18,North,0,0.0,0.0,17,0.00,CLR,FEW,0.00,WeatherDisplay:10.37,2013-03-28 19:15:00,
2013-03-28 15:20:00,59.2,14.3,30.18,North,0,0.0,0.0,17,0.00,CLR,FEW,0.00,WeatherDisplay:10.37,2013-03-28 19:20:00,
2013-03-28 15:25:00,59.2,14.3,30.18,North,0,0.0,0.0,17,0.00,CLR,FEW,0.00,WeatherDisplay:10.37,2013-03-28 19:25:00,
2013-03-28 15:31:00,59.4,14.5,30.18,North,0,0.0,0.0,17,0.00,CLR,FEW,0.00,WeatherDisplay:10.37,2013-03-28 19:31:00,
2013-03-28 15:36:00,59.4,14.5,30.18,North,0,0.0,0.0,17,0.00,CLR,FEW,0.00,WeatherDisplay:10.37,2013-03-28 19:36:00,
2013-03-28 15:41:00,59.4,14.5,30.18,North,0,0.0,0.0,17,0.00,CLR,FEW,0.00,WeatherDisplay:10.37,2013-03-28 19:41:00,
2013-03-28 15:46:00,59.5,14.6,30.18,North,0,0.0,0.0,17,0.00,CLR,FEW,0.00,WeatherDisplay:10.37,2013-03-28 19:46:00,
2013-03-28 15:51:00,59.5,14.6,30.18,North,0,0.0,0.0,17,0.00,CLR,FEW,0.00,WeatherDisplay:10.37,2013-03-28 19:51:00,
2013-03-28 15:56:00,59.4,14.5,30.18,North,0,0.0,0.0,17,0.00,CLR,FEW,0.00,WeatherDisplay:10.37,2013-03-28 19:56:00,
2013-03-28 16:01:00,59.9,14.9,30.18,North,0,0.0,0.0,17,0.00,CLR,FEW,0.00,WeatherDisplay:10.37,2013-03-28 20:01:00,
2013-03-28 16:06:00,60.1,15.1,30.18,North,0,0.0,0.0,17,0.00,CLR,FEW,0.00,WeatherDisplay:10.37,2013-03-28 20:06:00,
2013-03-28 16:11:00,59.7,14.8,30.18,North,0,0.0,0.0,17,0.00,CLR,FEW,0.00,WeatherDisplay:10.37,2013-03-28 20:11:00,
2013-03-28 16:16:00,59.4,14.5,30.18,North,0,0.0,0.0,17,0.00,CLR,FEW,0.00,WeatherDisplay:10.37,2013-03-28 20:16:00,
2013-03-28 16:21:00,59.9,14.9,30.18,North,0,0.0,0.0,17,0.00,CLR,FEW,0.00,WeatherDisplay:10.37,2013-03-28 20:21:00,
2013-03-28 16:26:00,60.1,15.1,30.18,North,0,0.0,0.0,17,0.00,CLR,FEW,0.00,WeatherDisplay:10.37,2013-03-28 20:26:00,
2013-03-28 16:31:00,59.9,14.9,30.15,North,0,0.0,0.0,17,0.00,CLR,FEW,0.00,WeatherDisplay:10.37,2013-03-28 20:31:00,
2013-03-28 16:36:00,60.1,15.1,30.15,North,0,0.0,0.0,17,0.00,CLR,FEW,0.00,WeatherDisplay:10.37,2013-03-28 20:36:00,
2013-03-28 16:41:00,60.3,15.2,30.15,North,0,0.0,0.0,17,0.00,CLR,FEW,0.00,WeatherDisplay:10.37,2013-03-28 20:41:00,
2013-03-28 16:46:00,60.1,15.1,30.15,North,0,0.0,0.0,17,0.00,CLR,FEW,0.00,WeatherDisplay:10.37,2013-03-28 20:46:00,
2013-03-28 16:52:00,60.1,15.1,30.15,North,0,0.0,0.0,17,0.00,CLR,FEW,0.00,WeatherDisplay:10.37,2013-03-28 20:52:00,
2013-03-28 16:57:00,59.9,14.9,30.15,North,0,0.0,0.0,17,0.00,CLR,FEW,0.00,WeatherDisplay:10.37,2013-03-28 20:57:00,
2013-03-28 17:02:00,59.5,14.6,30.15,North,0,0.0,0.0,17,0.00,CLR,FEW,0.00,WeatherDisplay:10.37,2013-03-28 21:02:00,
2013-03-28 17:07:00,59.5,14.6,30.15,North,0,0.0,0.0,17,0.00,CLR,FEW,0.00,WeatherDisplay:10.37,2013-03-28 21:07:00,
2013-03-28 17:12:00,59.4,14.5,30.15,North,0,0.0,0.0,17,0.00,CLR,FEW,0.00,WeatherDisplay:10.37,2013-03-28 21:12:00,
2013-03-28 17:17:00,59.2,14.3,30.15,North,0,0.0,0.0,17,0.00,CLR,FEW,0.00,WeatherDisplay:10.37,2013-03-28 21:17:00,
2013-03-28 17:22:00,59.2,14.3,30.15,North,0,0.0,0.0,17,0.00,CLR,FEW,0.00,WeatherDisplay:10.37,2013-03-28 21:22:00,
2013-03-28 17:27:00,58.8,14.0,30.15,North,0,0.0,0.0,17,0.00,CLR,FEW,0.00,WeatherDisplay:10.37,2013-03-28 21:27:00,
2013-03-28 17:32:00,58.8,14.0,30.15,North,0,0.0,0.0,17,0.00,CLR,FEW,0.00,WeatherDisplay:10.37,2013-03-28 21:32:00,
2013-03-28 17:37:00,58.6,13.9,30.15,North,0,0.0,0.0,17,0.00,CLR,FEW,0.00,WeatherDisplay:10.37,2013-03-28 21:37:00,
2013-03-28 17:42:00,58.8,14.0,30.15,North,0,0.0,0.0,17,0.00,CLR,FEW,0.00,WeatherDisplay:10.37,2013-03-28 21:42:00,
2013-03-28 17:47:00,58.8,14.0,30.15,North,0,0.0,0.0,17,0.00,CLR,FEW,0.00,WeatherDisplay:10.37,2013-03-28 21:47:00,
2013-03-28 17:52:00,58.6,13.9,30.15,North,0,0.0,0.0,17,0.00,CLR,FEW,0.00,WeatherDisplay:10.37,2013-03-28 21:52:00,
2013-03-28 17:57:00,58.6,13.9,30.15,North,0,0.0,0.0,17,0.00,CLR,FEW,0.00,WeatherDisplay:10.37,2013-03-28 21:57:00,
2013-03-28 18:03:00,58.5,13.7,30.15,North,0,0.0,0.0,17,0.00,CLR,FEW,0.00,WeatherDisplay:10.37,2013-03-28 22:03:00,
2013-03-28 18:08:00,58.5,13.7,30.15,North,0,0.0,0.0,17,0.00,CLR,FEW,0.00,WeatherDisplay:10.37,2013-03-28 22:08:00,
2013-03-28 18:13:00,58.3,13.6,30.15,North,0,0.0,0.0,17,0.00,CLR,FEW,0.00,WeatherDisplay:10.37,2013-03-28 22:13:00,
2013-03-28 18:18:00,58.1,13.4,30.15,North,0,0.0,0.0,17,0.00,CLR,FEW,0.00,WeatherDisplay:10.37,2013-03-28 22:18:00,
2013-03-28 18:23:00,58.1,13.4,30.15,North,0,0.0,0.0,17,0.00,CLR,FEW,0.00,WeatherDisplay:10.37,2013-03-28 22:23:00,
2013-03-28 18:28:00,58.1,13.4,30.15,North,0,0.0,0.0,17,0.00,CLR,FEW,0.00,WeatherDisplay:10.37,2013-03-28 22:28:00,
2013-03-28 18:33:00,57.9,13.3,30.15,North,0,0.0,0.0,17,0.00,CLR,FEW,0.00,WeatherDisplay:10.37,2013-03-28 22:33:00,
2013-03-28 18:38:00,57.7,13.2,30.15,North,0,0.0,0.0,17,0.00,CLR,FEW,0.00,WeatherDisplay:10.37,2013-03-28 22:38:00,
2013-03-28 18:43:00,57.6,13.0,30.15,North,0,0.0,0.0,17,0.00,CLR,FEW,0.00,WeatherDisplay:10.37,2013-03-28 22:43:00,
2013-03-28 18:48:00,57.4,12.9,30.18,North,0,0.0,0.0,17,0.00,CLR,FEW,0.00,WeatherDisplay:10.37,2013-03-28 22:48:00,
2013-03-28 18:53:00,57.4,12.9,30.18,North,0,0.0,0.0,17,0.00,CLR,FEW,0.00,WeatherDisplay:10.37,2013-03-28 22:53:00,
2013-03-28 18:58:00,57.2,12.7,30.18,North,0,0.0,0.0,17,0.00,CLR,FEW,0.00,WeatherDisplay:10.37,2013-03-28 22:58:00,
2013-03-28 19:04:00,57.0,12.6,30.18,North,0,0.0,0.0,17,0.00,CLR,FEW,0.00,WeatherDisplay:10.37,2013-03-28 23:04:00,
2013-03-28 19:09:00,56.8,12.4,30.18,North,0,0.0,0.0,17,0.00,CLR,FEW,0.00,WeatherDisplay:10.37,2013-03-28 23:09:00,
2013-03-28 19:14:00,56.7,12.3,30.18,North,0,0.0,0.0,17,0.00,CLR,FEW,0.00,WeatherDisplay:10.37,2013-03-28 23:14:00,
2013-03-28 19:19:00,56.5,12.1,30.18,North,0,0.0,0.0,17,0.00,CLR,FEW,0.00,WeatherDisplay:10.37,2013-03-28 23:19:00,
2013-03-28 19:24:00,56.3,12.0,30.18,North,0,0.0,0.0,17,0.00,CLR,FEW,0.00,WeatherDisplay:10.37,2013-03-28 23:24:00,
2013-03-28 19:29:00,55.9,11.7,30.18,North,0,0.0,0.0,17,0.00,CLR,FEW,0.00,WeatherDisplay:10.37,2013-03-28 23:29:00,
2013-03-28 19:34:00,55.6,11.4,30.18,North,0,0.0,0.0,17,0.00,CLR,FEW,0.00,WeatherDisplay:10.37,2013-03-28 23:34:00,
2013-03-28 19:40:00,55.0,12.2,30.18,North,0,0.0,0.0,18,0.00,CLR,FEW,0.00,WeatherDisplay:10.37,2013-03-28 23:40:00,
2013-03-28 19:45:00,54.7,11.9,30.18,North,0,0.0,0.0,18,0.00,CLR,FEW,0.00,WeatherDisplay:10.37,2013-03-28 23:45:00,
2013-03-28 19:50:00,54.3,11.6,30.18,North,0,0.0,0.0,18,0.00,CLR,FEW,0.00,WeatherDisplay:10.37,2013-03-28 23:50:00,
2013-03-28 19:55:00,54.0,11.3,30.18,North,0,0.0,0.0,18,0.00,CLR,FEW,0.00,WeatherDisplay:10.37,2013-03-28 23:55:00,
2013-03-28 20:00:00,53.6,11.0,30.21,North,0,0.0,0.0,18,0.00,CLR,FEW,0.00,WeatherDisplay:10.37,2013-03-29 00:00:00,
2013-03-28 20:05:00,53.2,10.8,30.21,North,0,0.0,0.0,18,0.00,CLR,FEW,0.00,WeatherDisplay:10.37,2013-03-29 00:05:00,
2013-03-28 20:10:00,52.7,10.3,30.21,North,0,0.0,0.0,18,0.00,CLR,FEW,0.00,WeatherDisplay:10.37,2013-03-29 00:10:00,
2013-03-28 20:15:00,52.2,9.9,30.21,North,0,0.0,0.0,18,0.00,CLR,FEW,0.00,WeatherDisplay:10.37,2013-03-29 00:15:00,
2013-03-28 20:20:00,51.6,10.6,30.21,North,0,0.0,0.0,19,0.00,CLR,FEW,0.00,WeatherDisplay:10.37,2013-03-29 00:20:00,
2013-03-28 20:25:00,51.1,10.2,30.21,North,0,0.0,0.0,19,0.00,CLR,FEW,0.00,WeatherDisplay:10.37,2013-03-29 00:25:00,
2013-03-28 20:30:00,50.5,9.7,30.21,North,0,0.0,0.0,19,0.00,CLR,FEW,0.00,WeatherDisplay:10.37,2013-03-29 00:30:00,
2013-03-28 20:35:00,50.0,9.3,30.21,North,0,0.0,0.0,19,0.00,CLR,FEW,0.00,WeatherDisplay:10.37,2013-03-29 00:35:00,
2013-03-28 20:41:00,49.5,11.1,30.21,North,0,0.0,0.0,21,0.00,CLR,FEW,0.00,WeatherDisplay:10.37,2013-03-29 00:41:00,
2013-03-28 20:46:00,49.1,10.8,30.21,North,0,0.0,0.0,21,0.00,CLR,FEW,0.00,WeatherDisplay:10.37,2013-03-29 00:46:00,
2013-03-28 20:52:00,48.6,10.3,30.21,North,0,0.0,0.0,21,0.00,CLR,FEW,0.00,WeatherDisplay:10.37,2013-03-29 00:52:00,
2013-03-28 20:57:00,48.2,10.0,30.21,North,0,0.0,0.0,21,0.00,CLR,FEW,0.00,WeatherDisplay:10.37,2013-03-29 00:57:00,
2013-03-28 21:02:00,47.7,12.6,30.21,North,0,0.0,0.0,24,0.00,CLR,FEW,0.00,WeatherDisplay:10.37,2013-03-29 01:02:00,
2013-03-28 21:07:00,47.5,12.4,30.21,North,0,0.0,0.0,24,0.00,CLR,FEW,0.00,WeatherDisplay:10.37,2013-03-29 01:07:00,
2013-03-28 21:12:00,47.1,14.8,30.21,North,0,0.0,0.0,27,0.00,CLR,FEW,0.00,WeatherDisplay:10.37,2013-03-29 01:12:00,
2013-03-28 21:17:00,46.9,14.6,30.24,North,0,0.0,0.0,27,0.00,CLR,FEW,0.00,WeatherDisplay:10.37,2013-03-29 01:17:00,
2013-03-28 21:22:00,46.6,14.3,30.24,North,0,0.0,0.0,27,0.00,CLR,FEW,0.00,WeatherDisplay:10.37,2013-03-29 01:22:00,
2013-03-28 21:27:00,46.2,14.9,30.24,North,0,0.0,0.0,28,0.00,CLR,FEW,0.00,WeatherDisplay:10.37,2013-03-29 01:27:00,
2013-03-28 21:33:00,45.9,14.5,30.24,North,0,0.0,0.0,28,0.00,CLR,FEW,0.00,WeatherDisplay:10.37,2013-03-29 01:33:00,
2013-03-28 21:38:00,45.7,14.4,30.24,North,0,0.0,0.0,28,0.00,CLR,FEW,0.00,WeatherDisplay:10.37,2013-03-29 01:38:00,
2013-03-28 21:43:00,45.3,14.1,30.24,North,0,0.0,0.0,28,0.00,CLR,FEW,0.00,WeatherDisplay:10.37,2013-03-29 01:43:00,
2013-03-28 21:48:00,45.1,14.7,30.24,North,0,0.0,0.0,29,0.00,CLR,FEW,0.00,WeatherDisplay:10.37,2013-03-29 01:48:00,
2013-03-28 21:53:00,44.8,14.4,30.24,North,0,0.0,0.0,29,0.00,CLR,FEW,0.00,WeatherDisplay:10.37,2013-03-29 01:53:00,
2013-03-28 21:58:00,44.4,14.1,30.24,North,0,0.0,0.0,29,0.00,CLR,FEW,0.00,WeatherDisplay:10.37,2013-03-29 01:58:00,
2013-03-28 22:04:00,44.2,14.7,30.24,North,0,0.0,0.0,30,0.00,CLR,FEW,0.00,WeatherDisplay:10.37,2013-03-29 02:04:00,
2013-03-28 22:09:00,44.1,15.3,30.24,North,0,0.0,0.0,31,0.00,CLR,FEW,0.00,WeatherDisplay:10.37,2013-03-29 02:09:00,
2013-03-28 22:14:00,43.9,15.2,30.24,North,0,0.0,0.0,31,0.00,CLR,FEW,0.00,WeatherDisplay:10.37,2013-03-29 02:14:00,
2013-03-28 22:19:00,43.7,15.7,30.24,North,0,0.0,0.0,32,0.00,CLR,FEW,0.00,WeatherDisplay:10.37,2013-03-29 02:19:00,
2013-03-28 22:24:00,43.3,16.1,30.24,North,0,0.0,0.0,33,0.00,CLR,FEW,0.00,WeatherDisplay:10.37,2013-03-29 02:24:00,
2013-03-28 22:29:00,43.3,17.5,30.24,North,0,0.0,0.0,35,0.00,CLR,FEW,0.00,WeatherDisplay:10.37,2013-03-29 02:29:00,
2013-03-28 22:34:00,43.0,17.2,30.24,North,0,0.0,0.0,35,0.00,CLR,FEW,0.00,WeatherDisplay:10.37,2013-03-29 02:34:00,
2013-03-28 22:39:00,43.0,18.5,30.24,North,0,0.0,0.0,37,0.00,CLR,FEW,0.00,WeatherDisplay:10.37,2013-03-29 02:39:00,
2013-03-28 22:44:00,42.8,18.9,30.27,North,0,0.0,0.0,38,0.00,CLR,FEW,0.00,WeatherDisplay:10.37,2013-03-29 02:44:00,
2013-03-28 22:49:00,42.4,18.6,30.27,North,0,0.0,0.0,38,0.00,CLR,FEW,0.00,WeatherDisplay:10.37,2013-03-29 02:49:00,
2013-03-28 22:54:00,42.3,18.4,30.27,North,0,0.0,0.0,38,0.00,CLR,FEW,0.00,WeatherDisplay:10.37,2013-03-29 02:54:00,
2013-03-28 22:59:00,42.1,18.3,30.27,North,0,0.0,0.0,38,0.00,CLR,FEW,0.00,WeatherDisplay:10.37,2013-03-29 02:59:00,
2013-03-28 23:04:00,41.9,18.1,30.27,North,0,0.0,0.0,38,0.00,CLR,FEW,0.00,WeatherDisplay:10.37,2013-03-29 03:04:00,
2013-03-28 23:09:00,41.7,17.9,30.27,North,0,0.0,0.0,38,0.00,CLR,FEW,0.00,WeatherDisplay:10.37,2013-03-29 03:09:00,
2013-03-28 23:14:00,41.5,17.8,30.27,North,0,0.0,0.0,38,0.00,CLR,FEW,0.00,WeatherDisplay:10.37,2013-03-29 03:14:00,
2013-03-28 23:19:00,41.4,17.6,30.27,North,0,0.0,0.0,38,0.00,CLR,FEW,0.00,WeatherDisplay:10.37,2013-03-29 03:19:00,
2013-03-28 23:24:00,41.2,18.1,30.27,North,0,0.0,0.0,39,0.00,CLR,FEW,0.00,WeatherDisplay:10.37,2013-03-29 03:24:00,
2013-03-28 23:29:00,41.0,17.9,30.27,North,0,0.0,0.0,39,0.00,CLR,FEW,0.00,WeatherDisplay:10.37,2013-03-29 03:29:00,
2013-03-28 23:34:00,40.8,17.7,30.27,North,0,0.0,0.0,39,0.00,CLR,FEW,0.00,WeatherDisplay:10.37,2013-03-29 03:34:00,
2013-03-28 23:39:00,40.6,17.6,30.27,North,0,0.0,0.0,39,0.00,CLR,FEW,0.00,WeatherDisplay:10.37,2013-03-29 03:39:00,
2013-03-28 23:44:00,40.6,17.6,30.27,North,0,0.0,0.0,39,0.00,CLR,FEW,0.00,WeatherDisplay:10.37,2013-03-29 03:44:00,
2013-03-28 23:49:00,40.5,17.4,30.27,North,0,0.0,0.0,39,0.00,CLR,FEW,0.00,WeatherDisplay:10.37,2013-03-29 03:49:00,
2013-03-28 23:55:00,40.3,17.8,30.27,North,0,0.0,0.0,40,0.00,CLR,FEW,0.00,WeatherDisplay:10.37,2013-03-29 03:55:00,